SCP
0 0 0 0 0 0 0 0 0 0 0 0 0 0 0 0 0 0 0 0 0 0
0 0 0 0 0 0 0 0 0 0 0 0 0 0 0 0 0 0 0 0 0 0
0 0 0 0 0 0 0 0 0 0 0 0 0 0 0 0 0 0 0 0 0 0
0 0 0 0 0 0 0 0 0 0 0 0 0 0 0 0 0 0 0 0 0 0
0 0 0 0 0 0 0 0 0 0 0 0 0 0 0 0 0 0 0 0 0 0
0 0 0 0 0 0 0 0 0 0 0 0 0 0 0 0 0 0 0 0 0 0
0 0 0 0 0 0 0 0 0 0 0 0 0 0 0 0 0 0 0 0 0 0
0 0 0 0 0 0 0 0 0 0 0 0 0 0 0 0 0 0 0 0 0 0
0 0 0 0 0 0 0 0 0 0 0 0 0 0 0 0 0 0 0 0 0 0
0 0 0 0 0 0 0 0 0 0 0 0 0 0 0 0 0 0 0 0 0 0
0 0 0 0 0 0 0 0 0 0 0 0 0 0 0 0 0 0 0 0 0 0
0 0 0 0 0 0 0 0 0 0 0 0 0 0 0 0 0 0 0 0 0 0
0 0 0 0 0 0 0 0 0 0 0 -0 0 0 0 0 0 0 0 0 0 0
0 0 0 0 0 0 0 0 0 0 -0 -0 -0 -0 0 0 0 0 0 0 0 0
Wind_Speed_500mb
59 62 63 63 64 66 65 65 62 61 62 61 57 55 55 52 55 50 47 46 45 46
62 62 64 64 65 70 70 70 69 68 68 64 60 57 56 56 57 55 51 47 44 45
63 63 64 66 68 64 65 65 68 69 70 69 63 57 55 57 58 58 57 52 47 44
65 66 66 68 68 65 69 71 69 67 63 62 62 58 54 56 59 59 57 53 51 48
68 68 70 70 69 70 71 68 66 66 61 60 60 57 54 53 55 59 58 56 53 52
66 67 69 70 69 69 67 68 71 68 66 64 60 59 56 56 57 59 62 59 57 56
67 68 70 69 69 69 68 68 68 67 67 69 64 62 59 57 56 54 53 54 55 58
72 72 75 74 71 69 67 67 69 72 72 68 65 59 63 60 56 51 53 55 59 62
80 79 79 80 75 74 72 69 70 72 70 68 68 62 56 59 57 53 54 58 56 58
75 77 87 90 79 73 72 67 67 65 65 67 63 59 57 61 62 56 58 58 59 59
80 91 95 92 93 75 83 63 63 60 60 63 61 55 54 53 57 58 59 59 59 62
86 97 96 92 100 79 59 62 53 56 56 56 55 53 56 53 53 56 59 62 63 64
94 86 91 91 74 70 61 60 61 53 52 52 54 49 51 53 52 56 62 63 64 63
87 85 87 73 64 56 57 48 46 47 44 48 46 47 50 52 53 60 62 65 63 56
Wind_Direction_500mb
298 294 289 288 285 283 282 279 279 277 276 278 279 275 273 271 264 264 262 261 255 253
297 293 290 287 286 282 279 279 279 278 275 274 272 272 269 266 261 260 264 263 259 256
297 294 290 288 286 283 281 280 280 281 276 268 263 266 267 264 258 258 260 261 261 259
298 295 291 288 286 281 283 282 278 280 276 263 260 260 262 261 257 255 258 259 259 261
298 296 292 289 286 285 285 280 277 278 273 259 258 258 259 256 255 255 255 259 259 259
301 300 297 293 288 285 282 278 278 275 268 258 256 258 256 255 257 256 255 255 255 257
306 305 302 297 293 289 285 280 277 272 268 263 256 256 255 253 253 253 251 247 248 256
306 304 302 298 295 292 287 282 279 277 271 264 257 257 255 248 244 246 249 249 251 256
304 304 304 303 297 292 287 284 281 275 270 261 259 257 253 246 249 246 248 252 253 256
309 306 308 307 299 296 289 285 280 274 267 262 254 254 254 245 240 242 248 250 251 254
310 312 310 304 303 285 289 287 278 273 267 263 258 254 252 246 241 241 248 251 253 256
313 313 310 308 306 294 281 288 280 272 266 264 261 255 252 248 244 245 250 255 256 257
319 315 317 316 305 305 296 288 280 277 270 260 264 255 256 248 248 251 255 258 259 258
323 321 321 315 309 301 289 292 281 276 270 263 259 260 257 251 251 255 258 258 258 252
Wind_Speed_850mb
59 62 63 63 64 66 65 65 62 61 62 61 57 55 55 52 55 50 47 46 45 46
62 62 64 64 65 70 70 70 69 68 68 64 60 57 56 56 57 55 51 47 44 45
63 63 64 66 68 64 65 65 68 69 70 69 63 57 55 57 58 58 57 52 47 44
65 66 66 68 68 65 69 71 69 67 63 62 62 58 54 56 59 59 57 53 51 48
68 68 70 70 69 70 71 68 66 66 61 60 60 57 54 53 55 59 58 56 53 52
66 67 69 70 69 69 67 68 71 68 66 64 60 59 56 56 57 59 62 59 57 56
67 68 70 69 69 69 68 68 68 67 67 69 64 62 59 57 56 54 53 54 55 58
72 72 75 74 71 69 67 67 69 72 72 68 65 59 63 60 56 51 53 55 59 62
80 79 79 80 75 74 72 69 70 72 70 68 68 62 56 59 57 53 54 58 56 58
75 77 87 90 79 73 72 67 67 65 65 67 63 59 57 61 62 56 58 58 59 59
80 91 95 92 93 75 83 63 63 60 60 63 61 55 54 53 57 58 59 59 59 62
86 97 96 92 100 79 59 62 53 56 56 56 55 53 56 53 53 56 59 62 63 64
94 86 91 91 74 70 61 60 61 53 52 52 54 49 51 53 52 56 62 63 64 63
87 85 87 73 64 56 57 48 46 47 44 48 46 47 50 52 53 60 62 65 63 56
Wind_Direction_850mb
298 294 289 288 285 283 282 279 279 277 276 278 279 275 273 271 264 264 262 261 255 253
297 293 290 287 286 282 279 279 279 278 275 274 272 272 269 266 261 260 264 263 259 256
297 294 290 288 286 283 281 280 280 281 276 268 263 266 267 264 258 258 260 261 261 259
298 295 291 288 286 281 283 282 278 280 276 263 260 260 262 261 257 255 258 259 259 261
298 296 292 289 286 285 285 280 277 278 273 259 258 258 259 256 255 255 255 259 259 259
301 300 297 293 288 285 282 278 278 275 268 258 256 258 256 255 257 256 255 255 255 257
306 305 302 297 293 289 285 280 277 272 268 263 256 256 255 253 253 253 251 247 248 256
306 304 302 298 295 292 287 282 279 277 271 264 257 257 255 248 244 246 249 249 251 256
304 304 304 303 297 292 287 284 281 275 270 261 259 257 253 246 249 246 248 252 253 256
309 306 308 307 299 296 289 285 280 274 267 262 254 254 254 245 240 242 248 250 251 254
310 312 310 304 303 285 289 287 278 273 267 263 258 254 252 246 241 241 248 251 253 256
313 313 310 308 306 294 281 288 280 272 266 264 261 255 252 248 244 245 250 255 256 257
319 315 317 316 305 305 296 288 280 277 270 260 264 255 256 248 248 251 255 258 259 258
323 321 321 315 309 301 289 292 281 276 270 263 259 260 257 251 251 255 258 258 258 252